1280707225224,16.8053
1280707285224,16.8275
1280707345224,16.8865
1280707405224,16.8174
1280707465224,16.8010
1280707525224,16.8300
1280707585224,16.8228
1280707645224,16.8260
1280707705224,16.8069
1280707765224,16.7816
1280707825224,16.8274
1280707885224,16.7699
1280707945224,16.8229
1280708005224,16.7448
1280708065224,16.8326
1280708125224,16.8185
1280708185224,16.8034
1280708245224,16.8557
1280708305224,16.7738
1280708365224,16.8098
1280708425224,16.7857
1280708485224,16.8143
1280708545224,16.8417
1280708605224,16.8682
1280708665224,16.7916
1280708725224,16.7952
1280708785224,16.8509
1280708845224,16.8067
1280708905224,16.8029
1280708965224,16.8677
1280709025224,16.8066
1280709085224,16.8473
1280709145224,16.8214
1280709205224,16.8062
1280709265224,16.8347
1280709325224,16.8574
1280709385224,16.8437
1280709445224,16.8354
1280709505224,16.8599
1280709565224,16.8375
1280709625224,16.7977
1280709685224,16.8134
1280709745224,16.8038
1280709805224,16.7784
1280709865224,16.7792
1280709925224,16.7765
1280709985224,16.8045
1280710045224,16.7209
1280710105224,16.7865
1280710165224,16.8063
1280710225224,16.7642
1280710285224,16.8186
1280710345224,16.8611
1280710405224,16.8207
1280710465224,16.8175
1280710525224,16.8545
1280710585224,16.8379
1280710645224,16.8584
1280710705224,16.8524
1280710765224,16.8181
1280710825233,16.8639
1280710885233,16.7971
1280710945233,16.8734
1280711005233,16.7911
1280711065233,16.8160
1280711125233,16.8501
1280711185233,16.8623
1280711245233,16.8429
1280711305233,16.7951
1280711365233,16.8434
1280711425233,16.7905
1280711485233,16.7786
1280711545233,16.7610
1280711605233,16.8090
1280711665233,16.7420
1280711725233,16.8172
1280711785233,16.7104
1280711845233,16.7310
1280711905233,16.7522
1280711965233,16.8431
1280712025233,16.7951
1280712085233,16.7933
1280712145233,16.8041
1280712205233,16.7738
1280712265233,16.7120
1280712325233,16.7673
1280712385233,16.7614
1280712445233,16.7441
1280712505233,16.7719
1280712565233,16.8408
1280712625233,16.7665
1280712685233,16.7419
1280712745233,16.7263
1280712805233,16.7673
1280712865233,16.7056
1280712925233,16.7452
1280712985233,16.7244
1280713045233,16.7542
1280713105233,16.7240
1280713165233,16.8040
1280713225233,16.7412
1280713285233,16.8035
1280713345233,16.8043
1280713405233,16.7335
1280713465233,16.7896
1280713525233,16.7503
1280713585233,16.7175
1280713645233,16.7428
1280713705233,16.7298
1280713765233,16.7099
1280713825233,16.6874
1280713885233,16.7571
1280713945233,16.7524
1280714005233,16.7730
1280714065233,16.7399
1280714125233,16.7258
1280714185233,16.7118
1280714245233,16.7171
1280714305233,16.6846
1280714365233,16.7279
1280714425242,16.7507
1280714485242,16.6891
1280714545242,16.7193
1280714605242,16.7053
1280714665242,16.7347
1280714725242,16.7171
1280714785242,16.7018
1280714845242,16.7402
1280714905242,16.7087
1280714965242,16.7024
1280715025242,16.7249
1280715085242,16.7302
1280715145242,16.7060
1280715205242,16.6826
1280715265242,16.7326
1280715325242,16.7015
1280715385242,16.6651
1280715445242,16.6850
1280715505242,16.7192
1280715565242,16.6976
1280715625242,16.6982
1280715685242,16.7611
1280715745242,16.7251
1280715805242,16.6762
1280715865242,16.6645
1280715925242,16.7537
1280715985242,16.6942
1280716045242,16.7211
1280716105242,16.7000
1280716165242,16.6951
1280716225242,16.7311
1280716285242,16.7285
1280716345242,16.6758
1280716405242,16.6901
1280716465242,16.7467
1280716525242,16.6927
1280716585242,16.7083
1280716645242,16.6959
1280716705242,16.6551
1280716765242,16.7469
1280716825242,16.7126
1280716885242,16.6457
1280716945242,16.7184
1280717005242,16.7693
1280717065242,16.7170
1280717125242,16.7301
1280717185242,16.7136
1280717245242,16.7275
1280717305242,16.7043
1280717365242,16.7184
1280717425242,16.6873
1280717485242,16.6774
1280717545242,16.7377
1280717605242,16.7153
1280717665242,16.7484
1280717725242,16.7261
1280717785242,16.7310
1280717845242,16.7362
1280717905242,16.7208
1280717965242,16.6914
1280718025251,16.6768
1280718085251,16.7597
1280718145251,16.7780
1280718205251,16.8105
1280718265251,16.7043
1280718325251,16.7234
1280718385251,16.6391
1280718445251,16.7357
1280718505251,16.6831
1280718565251,16.7016
1280718625251,16.7003
1280718685251,16.7056
1280718745251,16.7556
1280718805251,16.7167
1280718865251,16.7354
1280718925251,16.7125
1280718985251,16.7347
1280719045251,16.7602
1280719105251,16.7541
1280719165251,16.7704
1280719225251,16.7611
1280719285251,16.7344
1280719345251,16.7238
1280719405251,16.7084
1280719465251,16.7118
1280719525251,16.6988
1280719585251,16.7474
1280719645251,16.7122
1280719705251,16.7455
1280719765251,16.6798
1280719825251,16.7907
1280719885251,16.7103
1280719945251,16.6979
1280720005251,16.6975
1280720065251,16.7194
1280720125251,16.7873
1280720185251,16.7465
1280720245251,16.7380
1280720305251,16.7963
1280720365251,16.6969
1280720425251,16.7592
1280720485251,16.7513
1280720545251,16.7376
1280720605251,16.7197
1280720665251,16.7559
1280720725251,16.8014
1280720785251,16.7549
1280720845251,16.7551
1280720905251,16.6854
1280720965251,16.7426
1280721025251,16.7264
1280721085251,16.7643
1280721145251,16.7178
1280721205251,16.7513
1280721265251,16.7682
1280721325251,16.7476
1280721385251,16.6632
1280721445251,16.7408
1280721505251,16.6807
1280721565251,16.7001
1280721625260,16.7404
1280721685260,16.7389
1280721745260,16.7106
1280721805260,16.7118
1280721865260,16.7232
1280721925260,16.7501
1280721985260,16.7196
1280722045260,16.7410
1280722105260,16.6965
1280722165260,16.6805
1280722225260,16.6763
1280722285260,16.6765
1280722345260,16.7166
1280722405260,16.7115
1280722465260,16.7131
1280722525260,16.6853
1280722585260,16.7135
1280722645260,16.6953
1280722705260,16.7309
1280722765260,16.7294
1280722825260,16.7242
1280722885260,16.6976
1280722945260,16.8055
1280723005260,16.7311
1280723065260,16.7148
1280723125260,16.7359
1280723185260,16.7213
1280723245260,16.6684
1280723305260,16.7240
1280723365260,16.7475
1280723425260,16.6873
1280723485260,16.7377
1280723545260,16.7376
1280723605260,16.7181
1280723665260,16.6741
1280723725260,16.6791
1280723785260,16.6896
1280723845260,16.6295
1280723905260,16.6797
1280723965260,16.6628
1280724025260,16.6592
1280724085260,16.6678
1280724145260,16.6620
1280724205260,16.7027
1280724265260,16.6445
1280724325260,16.6776
1280724385260,16.6944
1280724445260,16.6376
1280724505260,16.6492
1280724565260,16.6557
1280724625260,16.6668
1280724685260,16.6142
1280724745260,16.6354
1280724805260,16.6136
1280724865260,16.5978
1280724925260,16.6007
1280724985260,16.6452
1280725045260,16.6132
1280725105260,16.6187
1280725165260,16.6686
1280725225269,16.6703
1280725285269,16.6692
1280725345269,16.7194
1280725405269,16.6826
1280725465269,16.6696
1280725525269,16.6412
1280725585269,16.6573
1280725645269,16.6868
1280725705269,16.6755
1280725765269,16.6398
1280725825269,16.6647
1280725885269,16.6867
1280725945269,16.6041
1280726005269,16.7249
1280726065269,16.7161
1280726125269,16.6449
1280726185269,16.6971
1280726245269,16.6952
1280726305269,16.6829
1280726365269,16.7158
1280726425269,16.6476
1280726485269,16.6601
1280726545269,16.6536
1280726605269,16.6470
1280726665269,16.6555
1280726725269,16.6816
1280726785269,16.6367
1280726845269,16.6257
1280726905269,16.6691
1280726965269,16.6330
1280727025269,16.6624
1280727085269,16.6484
1280727145269,16.6915
1280727205269,16.6647
1280727265269,16.6279
1280727325269,16.6509
1280727385269,16.6778
1280727445269,16.6518
1280727505269,16.6815
1280727565269,16.6707
1280727625269,16.6891
1280727685269,16.6992
1280727745269,16.6615
1280727805269,16.6921
1280727865269,16.6564
1280727925269,16.6852
1280727985269,16.6765
1280728045269,16.6961
1280728105269,16.6496
1280728165269,16.7157
1280728225269,16.6896
1280728285269,16.6952
1280728345269,16.6697
1280728405269,16.6609
1280728465269,16.6928
1280728525269,16.7233
1280728585269,16.7278
1280728645269,16.7099
1280728705269,16.6734
1280728765269,16.7327
1280728825278,16.6789
1280728885278,16.6560
1280728945278,16.7306
1280729005278,16.6607
1280729065278,16.6816
1280729125278,16.7192
1280729185278,16.7135
1280729245278,16.6787
1280729305278,16.6485
1280729365278,16.6450
1280729425278,16.6778
1280729485278,16.6741
1280729545278,16.6279
1280729605278,16.6349
1280729665278,16.7003
1280729725278,16.6836
1280729785278,16.6421
1280729845278,16.6852
1280729905278,16.7221
1280729965278,16.6611
1280730025278,16.6661
1280730085278,16.6182
1280730145278,16.6839
1280730205278,16.6404
1280730265278,16.7062
1280730325278,16.7343
1280730385278,16.6563
1280730445278,16.6624
1280730505278,16.6873
1280730565278,16.6897
1280730625278,16.6626
1280730685278,16.6827
1280730745278,16.6715
1280730805278,16.6164
1280730865278,16.6056
1280730925278,16.6851
1280730985278,16.7214
1280731045278,16.6322
1280731105278,16.6373
1280731165278,16.6464
1280731225278,16.6723
1280731285278,16.7104
1280731345278,16.6482
1280731405278,16.6622
1280731465278,16.6671
1280731525278,16.6867
1280731585278,16.6506
1280731645278,16.6684
1280731705278,16.6074
1280731765278,16.6657
1280731825278,16.6374
1280731885278,16.6463
1280731945278,16.6350
1280732005278,16.6486
1280732065278,16.7033
1280732125278,16.6569
1280732185278,16.6392
1280732245278,16.7306
1280732305278,16.7134
1280732365278,16.7887
1280732425286,16.7111
1280732485286,16.7216
1280732545286,16.7060
1280732605286,16.6151
1280732665286,16.6272
1280732725286,16.7228
1280732785286,16.6818
1280732845286,16.7300
1280732905286,16.6597
1280732965286,16.6516
1280733025286,16.6475
1280733085286,16.6566
1280733145286,16.6873
1280733205286,16.5815
1280733265286,16.6390
1280733325286,16.6600
1280733385286,16.6701
1280733445286,16.6998
1280733505286,16.6642
1280733565286,16.6337
1280733625286,16.6946
1280733685286,16.6920
1280733745286,16.6838
1280733805286,16.6501
1280733865286,16.7597
1280733925286,16.7183
1280733985286,16.7568
1280734045286,16.7153
1280734105286,16.8040
1280734165286,16.7338
1280734225286,16.7392
1280734285286,16.7049
1280734345286,16.7111
1280734405286,16.6636
1280734465286,16.5882
1280734525286,16.6592
1280734585286,16.6593
1280734645286,16.6738
1280734705286,16.7175
1280734765286,16.6900
1280734825286,16.6655
1280734885286,16.6834
1280734945286,16.6343
1280735005286,16.6996
1280735065286,16.6916
1280735125286,16.6800
1280735185286,16.7174
1280735245286,16.7085
1280735305286,16.7539
1280735365286,16.7068
1280735425286,16.7063
1280735485286,16.7526
1280735545286,16.7634
1280735605286,16.7348
1280735665286,16.6974
1280735725286,16.6581
1280735785286,16.7072
1280735845286,16.6948
1280735905286,16.6948
1280735965286,16.7074
1280736025295,16.7272
1280736085295,16.6711
1280736145295,16.7338
1280736205295,16.7050
1280736265295,16.6620
1280736325295,16.6484
1280736385295,16.6762
1280736445295,16.6632
1280736505295,16.6917
1280736565295,16.6498
1280736625295,16.6839
1280736685295,16.7091
1280736745295,16.7482
1280736805295,16.7267
1280736865295,16.7628
1280736925295,16.7126
1280736985295,16.7176
1280737045295,16.6632
1280737105295,16.7256
1280737165295,16.6682
1280737225295,16.6517
1280737285295,16.6622
1280737345295,16.6580
1280737405295,16.6921
1280737465295,16.6808
1280737525295,16.6961
1280737585295,16.7150
1280737645295,16.6995
1280737705295,16.7353
1280737765295,16.7260
1280737825295,16.7754
1280737885295,16.7115
1280737945295,16.7471
1280738005295,16.7200
1280738065295,16.7252
1280738125295,16.7384
1280738185295,16.7280
1280738245295,16.7671
1280738305295,16.6930
1280738365295,16.7335
1280738425295,16.7053
1280738485295,16.7490
1280738545295,16.8105
1280738605295,16.7601
1280738665295,16.7645
1280738725295,16.7564
1280738785295,16.6925
1280738845295,16.7190
1280738905295,16.6944
1280738965295,16.7382
1280739025295,16.6571
1280739085295,16.6733
1280739145295,16.7147
1280739205295,16.6886
1280739265295,16.7064
1280739325295,16.6836
1280739385295,16.7093
1280739445295,16.7199
1280739505295,16.7333
1280739565295,16.6956
1280739625303,16.6754
1280739685303,16.6885
1280739745303,16.6812
1280739805303,16.7444
1280739865303,16.7135
1280739925304,16.7080
1280739985304,16.7481
1280740045304,16.7134
1280740105303,16.7450
1280740165303,16.7036
1280740225303,16.7150
1280740285304,16.7799
1280740345304,16.6886
1280740405304,16.7221
1280740465304,16.7284
1280740525304,16.7130
1280740585304,16.6980
1280740645304,16.7231
1280740705304,16.7177
1280740765303,16.7049
1280740825303,16.8184
1280740885303,16.7242
1280740945303,16.7071
1280741005303,16.7283
1280741065303,16.6875
1280741125303,16.7282
1280741185303,16.7511
1280741245303,16.7248
1280741305304,16.7458
1280741365304,16.7741
1280741425304,16.7278
1280741485303,16.7354
1280741545303,16.7064
1280741605304,16.7463
1280741665304,16.7346
1280741725304,16.7539
1280741785304,16.7199
1280741845304,16.7486
1280741905304,16.7148
1280741965304,16.7320
1280742025304,16.7347
1280742085304,16.6897
1280742145303,16.6646
1280742205303,16.6811
1280742265303,16.7066
1280742325303,16.7431
1280742385303,16.7127
1280742445303,16.6879
1280742505303,16.6880
1280742565303,16.7211
1280742625304,16.6969
1280742685304,16.7473
1280742745304,16.7131
1280742805303,16.7247
1280742865303,16.7058
1280742925303,16.7991
1280742985304,16.7055
1280743045304,16.7753
1280743105304,16.7446
1280743165304,16.7207
1280743225312,16.7445
1280743285312,16.7447
1280743345312,16.7337
1280743405312,16.7755
1280743465312,16.7530
1280743525312,16.7507
1280743585312,16.7152
1280743645312,16.7780
1280743705312,16.6972
1280743765312,16.7514
1280743825312,16.7809
1280743885312,16.7895
1280743945312,16.7303
1280744005312,16.7134
1280744065312,16.7451
1280744125312,16.6983
1280744185312,16.7274
1280744245312,16.7341
1280744305312,16.7468
1280744365312,16.8096
1280744425312,16.7430
1280744485312,16.7749
1280744545312,16.7711
1280744605312,16.8788
1280744665312,16.7697
1280744725312,16.7899
1280744785312,16.8164
1280744845312,16.7052
1280744905312,16.7695
1280744965312,16.7654
1280745025312,16.7493
1280745085312,16.7278
1280745145312,16.7167
1280745205312,16.6884
1280745265312,16.7411
1280745325312,16.7288
1280745385312,16.7219
1280745445312,16.8233
1280745505312,16.7273
1280745565312,16.7585
1280745625312,16.7866
1280745685312,16.7829
1280745745312,16.7242
1280745805312,16.7603
1280745865312,16.7934
1280745925312,16.7820
1280745985312,16.7739
1280746045312,16.7469
1280746105312,16.8252
1280746165312,16.7650
1280746225312,16.7696
1280746285312,16.8006
1280746345312,16.7662
1280746405312,16.7563
1280746465312,16.8039
1280746525312,16.7760
1280746585312,16.7828
1280746645312,16.7378
1280746705312,16.7292
1280746765312,16.7819
1280746825321,16.8029
1280746885321,16.7925
1280746945321,16.8214
1280747005321,16.8048
1280747065321,16.7684
1280747125321,16.7690
1280747185321,16.7950
1280747245321,16.8154
1280747305321,16.8155
1280747365321,16.7586
1280747425321,16.8578
1280747485321,16.7946
1280747545321,16.7441
1280747605321,16.8340
1280747665321,16.8280
1280747725321,16.8644
1280747785321,16.7851
1280747845321,16.8335
1280747905321,16.8622
1280747965321,16.8074
1280748025321,16.8035
1280748085321,16.8204
1280748145321,16.7876
1280748205321,16.8227
1280748265321,16.8449
1280748325321,16.8582
1280748385321,16.7486
1280748445321,16.7831
1280748505321,16.7927
1280748565321,16.7876
1280748625321,16.7510
1280748685321,16.8277
1280748745321,16.7551
1280748805321,16.8000
1280748865321,16.7040
1280748925321,16.7919
1280748985321,16.7124
1280749045321,16.7748
1280749105321,16.7573
1280749165321,16.7831
1280749225321,16.7678
1280749285321,16.8018
1280749345321,16.7381
1280749405321,16.7713
1280749465321,16.7936
1280749525321,16.7070
1280749585321,16.7474
1280749645321,16.7062
1280749705321,16.6819
1280749765321,16.6942
1280749825321,16.6912
1280749885321,16.7373
1280749945321,16.6769
1280750005321,16.7626
1280750065321,16.6860
1280750125321,16.7544
1280750185321,16.7826
1280750245321,16.6631
1280750305321,16.7783
1280750365321,16.7205
1280750425329,16.7399
1280750485329,16.7185
1280750545329,16.7764
1280750605329,16.7571
1280750665329,16.7946
1280750725329,16.7780
1280750785329,16.7563
1280750845329,16.7522
1280750905329,16.7329
1280750965329,16.8059
1280751025329,16.7749
1280751085329,16.7485
1280751145329,16.7636
1280751205329,16.7892
1280751265329,16.7200
1280751325329,16.7540
1280751385329,16.7452
1280751445329,16.7206
1280751505329,16.7086
1280751565329,16.7764
1280751625329,16.8165
1280751685329,16.8039
1280751745329,16.7723
1280751805329,16.7636
1280751865329,16.7482
1280751925329,16.7672
1280751985329,16.6908
1280752045329,16.7788
1280752105329,16.7873
1280752165329,16.7264
1280752225329,16.7880
1280752285329,16.7795
1280752345329,16.7823
1280752405329,16.7506
1280752465329,16.7755
1280752525329,16.7719
1280752585329,16.8323
1280752645329,16.8549
1280752705329,16.8224
1280752765329,16.7526
1280752825329,16.7501
1280752885329,16.7783
1280752945329,16.7950
1280753005329,16.7988
1280753065329,16.7823
1280753125329,16.7217
1280753185329,16.8342
1280753245329,16.7758
1280753305329,16.7489
1280753365329,16.7988
1280753425329,16.7119
1280753485329,16.7367
1280753545329,16.7547
1280753605329,16.7804
1280753665329,16.7954
1280753725329,16.7773
1280753785329,16.7532
1280753845329,16.7929
1280753905329,16.7699
1280753965329,16.7742
1280754025338,16.7468
1280754085338,16.7769
1280754625338,16.7522
1280754685338,16.8343
1280754745338,16.7874
1280754805338,16.7687
1280754865338,16.7710
1280754925338,16.7989
1280754985338,16.8074
1280755045338,16.7870
1280755105338,16.8054
1280755165338,16.7573
1280755225338,16.8959
1280755285338,16.8788
1280755345338,16.8915
1280755405338,16.8468
1280755465338,16.8314
1280755525338,16.8801
1280755585338,16.8675
1280755645338,16.8660
1280755705338,16.8184
1280755765338,16.8312
1280755825338,16.7879
1280755885338,16.8358
1280755945338,16.7686
1280756005338,16.7708
1280756065338,16.7915
1280756125338,16.8321
1280756185338,16.7988
1280756245338,16.8097
1280756305338,16.7578
1280756365338,16.7731
1280756425338,16.7469
1280756485338,16.8118
1280756545338,16.7714
1280756605338,16.7661
1280756665338,16.7826
1280756725338,16.7807
1280756785338,16.7722
1280756845338,16.7667
1280756905338,16.7980
1280756965338,16.7919
1280757025338,16.8076
1280757085338,16.7784
1280757145338,16.8176
1280757205338,16.7950
1280757265338,16.8304
1280757325338,16.8653
1280757385338,16.7881
1280757445338,16.7600
1280757505338,16.7992
1280757565338,16.7786
1280757625347,16.7534
1280757685347,16.7132
1280757745347,16.7496
1280757805347,16.8388
1280757865347,16.7514
1280757925347,16.7563
1280757985347,16.8187
1280758045347,16.8041
1280758105347,16.8283
1280758165347,16.8006
1280758225347,16.8518
1280758285347,16.8213
1280758345347,16.8012
1280758405347,16.7878
1280758465347,16.9027
1280758525347,16.8281
1280758585347,16.8357
1280758645347,16.7913
1280758705347,16.8781
1280758765347,16.8014
1280758825347,16.8050
1280758885347,16.7945
1280758945347,16.8541
1280759005347,16.7977
1280759065347,16.7871
1280759125347,16.8489
1280759185347,16.8568
1280759245347,16.8076
1280759305347,16.8283
1280759365347,16.8042
1280759425347,16.7751
1280759485347,16.8329
1280759545347,16.8076
1280759605347,16.8356
1280759665347,16.8750
1280759725347,16.8451
1280759785347,16.7821
1280759845347,16.7695
1280759905347,16.8574
1280759965347,16.7692
1280760025347,16.7991
1280760085347,16.8213
1280760145347,16.8144
1280760205347,16.8072
1280760265347,16.7800
1280760325347,16.8089
1280760385347,16.8224
1280760445347,16.8006
1280760505347,16.7582
1280760565347,16.7711
1280760625347,16.7971
1280760685347,16.8244
1280760745347,16.7656
1280760805347,16.7640
1280760865347,16.7460
1280760925347,16.7124
1280760985347,16.8032
1280761045347,16.7466
1280761105347,16.8486
1280761165347,16.8158
1280761225356,16.7560
1280761285356,16.7681
1280761345356,16.7623
1280761405356,16.8306
1280761465356,16.7885
1280761525356,16.7523
1280761585356,16.7673
1280761645356,16.8267
1280761705356,16.8124
1280761765356,16.7973
1280761825356,16.8091
1280761885356,16.7589
1280761945356,16.7997
1280762005356,16.7598
1280762065356,16.8370
1280762125356,16.8509
1280762185356,16.8761
1280762245356,16.8245
1280762305356,16.8612
1280762365356,16.8444
1280762425356,16.8405
1280762485356,16.8211
1280762545356,16.9081
1280762605356,16.9270
1280762665356,16.8798
1280762725356,16.8649
1280762785356,16.8709
1280762845356,16.9067
1280762905356,16.8589
1280762965356,16.8475
1280763025356,16.8278
1280763085356,16.8797
1280763145356,16.8338
1280763205356,16.8861
1280763265356,16.8485
1280763325356,16.8040
1280763385356,16.8962
1280763445356,16.8563
1280763505356,16.8372
1280763565356,16.8012
1280763625356,16.8349
1280763685356,16.8027
1280763745356,16.8225
1280763805356,16.8489
1280763865356,16.7947
1280763925356,16.7905
1280763985356,16.8853
1280764045356,16.8352
1280764105356,16.8304
1280764165356,16.7981
1280764225356,16.8253
1280764285356,16.8475
1280764345356,16.8883
1280764405356,16.8560
1280764465356,16.8201
1280764525356,16.8212
1280764585356,16.8203
1280764645356,16.8207
1280764705356,16.7748
1280764765356,16.8158
1280764825366,16.8302
1280764885366,16.8342
1280764945366,16.8353
1280765005366,16.7881
1280765065366,16.8279
1280765125366,16.8059
1280765185366,16.8106
1280765245366,16.8059
1280765305366,16.8240
1280765365366,16.7539
1280765425366,16.7796
1280765485366,16.8060
1280765545366,16.7852
1280765605366,16.7759
1280765665366,16.7969
1280765725366,16.8425
1280765785366,16.7748
1280765845366,16.8014
1280765905366,16.7945
1280765965366,16.8260
1280766025366,16.8006
1280766085366,16.7587
1280766145366,16.8011
1280766205366,16.8336
1280766265366,16.7756
1280766325366,16.7996
1280766385366,16.7732
1280766445366,16.7814
1280766505366,16.8096
1280766565366,16.8535
1280766625366,16.7536
1280766685366,16.8270
1280766745366,16.7575
1280766805366,16.7672
1280766865366,16.7286
1280766925366,16.7545
1280766985366,16.7650
1280767045366,16.7680
1280767105366,16.8432
1280767165366,16.8174
1280767225366,16.8003
1280767285366,16.7439
1280767345366,16.7433
1280767405366,16.7761
1280767465366,16.7940
1280767525366,16.8824
1280767585366,16.8440
1280767645366,16.7759
1280767705366,16.7905
1280767765366,16.8499
1280767825366,16.8274
1280767885366,16.8041
1280767945366,16.8161
1280768005366,16.7842
1280768065366,16.7920
1280768125366,16.8018
1280768185366,16.8557
1280768245366,16.7891
1280768305366,16.7328
1280768365366,16.7866
1280768425376,16.7942
1280768485376,16.7990
1280768545376,16.8111
1280768605376,16.7476
1280768665376,16.7302
1280768725376,16.8718
1280768785376,16.8147
1280768845376,16.7801
1280768905376,16.7822
1280768965376,16.8151
1280769025376,16.7929
1280769085376,16.8262
1280769145376,16.7853
1280769205376,16.7800
1280769265376,16.7795
1280769325376,16.7716
1280769385376,16.8032
1280769445376,16.7939
1280769505376,16.9132
1280769565376,16.9509
1280769625376,17.0287
1280769685376,17.0252
1280769745376,16.9814
1280769805376,16.9904
1280769865376,17.1463
1280769925376,17.1896
1280769985376,17.1679
1280770045376,17.2273
1280770105376,17.1308
1280770165376,17.1050
1280770225376,17.0559
1280770285376,16.9759
1280770345376,16.9176
1280770405376,16.9194
1280770465376,16.8851
1280770525376,16.8346
1280770585376,16.7847
1280770645376,16.8201
1280770705376,16.8089
1280770765376,16.8017
1280770825376,16.8650
1280770885376,16.8549
1280770945376,16.7776
1280771005376,16.7511
1280771065376,16.8362
1280771125376,16.7638
1280771185376,16.7622
1280771245376,16.7440
1280771305376,16.8071
1280771365376,16.7312
1280771425376,16.7639
1280771485376,16.7363
1280771545376,16.7038
1280771605376,16.7417
1280771665376,16.6848
1280771725376,16.6939
1280771785376,16.6482
1280771845376,16.7092
1280771905376,16.7040
1280771965376,16.7194
1280772025386,16.7526
1280772085386,16.7404
1280772145386,16.7638
1280772205386,16.7421
1280772265386,16.7130
1280772325386,16.7284
1280772385386,16.7808
1280772445386,16.7662
1280772505386,16.7150
1280772565386,16.7785
1280772625386,16.8109
1280772685386,16.7471
1280772745386,16.7604
1280772805386,16.7522
1280772865386,16.7507
1280772925386,16.7314
1280772985386,16.8117
1280773045386,16.7779